Year,Month,Day,Hour,Minute,Value (Times are PST for temperature in C)
2016,08,12,00,00,20.70
2016,08,12,00,01,20.70
2016,08,12,00,02,20.70
2016,08,12,00,03,20.70
2016,08,12,00,04,20.70
2016,08,12,00,05,20.70
2016,08,12,00,06,20.60
2016,08,12,00,07,20.60
2016,08,12,00,08,20.60
2016,08,12,00,09,20.60
2016,08,12,00,10,20.50
2016,08,12,00,11,20.50
2016,08,12,00,12,20.50
2016,08,12,00,13,20.50
2016,08,12,00,14,20.50
2016,08,12,00,15,20.50
2016,08,12,00,16,20.50
2016,08,12,00,17,20.50
2016,08,12,00,18,20.50
2016,08,12,00,19,20.50
2016,08,12,00,20,20.50
2016,08,12,00,21,20.50
2016,08,12,00,22,20.50
2016,08,12,00,23,20.50
2016,08,12,00,24,20.50
2016,08,12,00,25,20.60
2016,08,12,00,26,20.60
2016,08,12,00,27,20.60
2016,08,12,00,28,20.60
2016,08,12,00,29,20.60
2016,08,12,00,30,20.60
2016,08,12,00,31,20.60
2016,08,12,00,32,20.60
2016,08,12,00,33,20.70
2016,08,12,00,34,20.70
2016,08,12,00,35,20.70
2016,08,12,00,36,20.70
2016,08,12,00,37,20.70
2016,08,12,00,38,20.60
2016,08,12,00,39,20.60
2016,08,12,00,40,20.60
2016,08,12,00,41,20.60
2016,08,12,00,42,20.60
2016,08,12,00,43,20.50
2016,08,12,00,44,20.50
2016,08,12,00,45,20.50
2016,08,12,00,46,20.50
2016,08,12,00,47,20.40
2016,08,12,00,48,20.40
2016,08,12,00,49,20.40
2016,08,12,00,50,20.40
2016,08,12,00,51,20.40
2016,08,12,00,52,20.40
2016,08,12,00,53,20.40
2016,08,12,00,54,20.40
2016,08,12,00,55,20.40
2016,08,12,00,56,20.40
2016,08,12,00,57,20.40
2016,08,12,00,58,20.40
2016,08,12,00,59,20.40
2016,08,12,01,00,20.30
2016,08,12,01,01,20.30
2016,08,12,01,02,20.30
2016,08,12,01,03,20.20
2016,08,12,01,04,20.20
2016,08,12,01,05,20.20
2016,08,12,01,06,20.20
2016,08,12,01,07,20.20
2016,08,12,01,08,20.20
2016,08,12,01,09,20.20
2016,08,12,01,10,20.20
2016,08,12,01,11,20.20
2016,08,12,01,12,20.20
2016,08,12,01,13,20.10
2016,08,12,01,14,20.10
2016,08,12,01,15,20.10
2016,08,12,01,16,20.10
2016,08,12,01,17,20.10
2016,08,12,01,18,20.00
2016,08,12,01,19,20.00
2016,08,12,01,20,20.00
2016,08,12,01,21,20.00
2016,08,12,01,22,20.00
2016,08,12,01,23,19.90
2016,08,12,01,24,19.90
2016,08,12,01,25,19.90
2016,08,12,01,26,19.90
2016,08,12,01,27,19.90
2016,08,12,01,28,19.90
2016,08,12,01,29,19.90
2016,08,12,01,30,19.90
2016,08,12,01,31,19.90
2016,08,12,01,32,19.90
2016,08,12,01,33,19.90
2016,08,12,01,34,19.80
2016,08,12,01,35,19.80
2016,08,12,01,36,19.80
2016,08,12,01,37,19.80
2016,08,12,01,38,19.80
2016,08,12,01,39,19.80
2016,08,12,01,40,19.80
2016,08,12,01,41,19.80
2016,08,12,01,42,19.80
2016,08,12,01,43,19.80
2016,08,12,01,44,19.80
2016,08,12,01,45,19.80
2016,08,12,01,46,19.80
2016,08,12,01,47,19.80
2016,08,12,01,48,19.80
2016,08,12,01,49,19.80
2016,08,12,01,50,19.70
2016,08,12,01,51,19.70
2016,08,12,01,52,19.70
2016,08,12,01,53,19.70
2016,08,12,01,54,19.70
2016,08,12,01,55,19.70
2016,08,12,01,56,19.70
2016,08,12,01,57,19.60
2016,08,12,01,58,19.60
2016,08,12,01,59,19.60
2016,08,12,02,00,19.60
2016,08,12,02,01,19.60
2016,08,12,02,02,19.60
2016,08,12,02,03,19.60
2016,08,12,02,04,19.60
2016,08,12,02,05,19.60
2016,08,12,02,06,19.60
2016,08,12,02,07,19.50
2016,08,12,02,08,19.50
2016,08,12,02,09,19.50
2016,08,12,02,10,19.50
2016,08,12,02,11,19.50
2016,08,12,02,12,19.50
2016,08,12,02,13,19.50
2016,08,12,02,14,19.40
2016,08,12,02,15,19.40
2016,08,12,02,16,19.40
2016,08,12,02,17,19.40
2016,08,12,02,18,19.40
2016,08,12,02,19,19.40
2016,08,12,02,20,19.40
2016,08,12,02,21,19.40
2016,08,12,02,22,19.40
2016,08,12,02,23,19.40
2016,08,12,02,24,19.40
2016,08,12,02,25,19.40
2016,08,12,02,26,19.40
2016,08,12,02,27,19.40
2016,08,12,02,28,19.40
2016,08,12,02,29,19.40
2016,08,12,02,30,19.40
2016,08,12,02,31,19.50
2016,08,12,02,32,19.50
2016,08,12,02,33,19.50
2016,08,12,02,34,19.50
2016,08,12,02,35,19.50
2016,08,12,02,36,19.50
2016,08,12,02,37,19.40
2016,08,12,02,38,19.40
2016,08,12,02,39,19.40
2016,08,12,02,40,19.40
2016,08,12,02,41,19.40
2016,08,12,02,42,19.40
2016,08,12,02,43,19.40
2016,08,12,02,44,19.40
2016,08,12,02,45,19.40
2016,08,12,02,46,19.40
2016,08,12,02,47,19.40
2016,08,12,02,48,19.50
2016,08,12,02,49,19.50
2016,08,12,02,50,19.50
2016,08,12,02,51,19.50
2016,08,12,02,52,19.60
2016,08,12,02,53,19.60
2016,08,12,02,54,19.60
2016,08,12,02,55,19.50
2016,08,12,02,56,19.50
2016,08,12,02,57,19.50
2016,08,12,02,58,19.50
2016,08,12,02,59,19.50
2016,08,12,03,00,19.50
2016,08,12,03,01,19.50
2016,08,12,03,02,19.50
2016,08,12,03,06,19.40
2016,08,12,03,07,19.40
2016,08,12,03,08,19.30
2016,08,12,03,09,19.30
2016,08,12,03,10,19.30
2016,08,12,03,11,19.20
2016,08,12,03,12,19.20
2016,08,12,03,13,19.20
2016,08,12,03,14,19.10
2016,08,12,03,15,19.10
2016,08,12,03,16,19.10
2016,08,12,03,17,19.10
2016,08,12,03,18,19.00
2016,08,12,03,19,19.00
2016,08,12,03,20,19.00
2016,08,12,03,21,18.90
2016,08,12,03,22,18.90
2016,08,12,03,23,18.90
2016,08,12,03,24,18.90
2016,08,12,03,25,18.90
2016,08,12,03,26,18.90
2016,08,12,03,27,18.80
2016,08,12,03,28,18.80
2016,08,12,03,29,18.80
2016,08,12,03,30,18.80
2016,08,12,03,31,18.80
2016,08,12,03,32,18.80
2016,08,12,03,33,18.80
2016,08,12,03,34,18.70
2016,08,12,03,35,18.70
2016,08,12,03,36,18.70
2016,08,12,03,37,18.70
2016,08,12,03,38,18.60
2016,08,12,03,39,18.60
2016,08,12,03,40,18.60
2016,08,12,03,41,18.60
2016,08,12,03,42,18.60
2016,08,12,03,43,18.60
2016,08,12,03,44,18.60
2016,08,12,03,45,18.50
2016,08,12,03,46,18.50
2016,08,12,03,47,18.50
2016,08,12,03,48,18.50
2016,08,12,03,49,18.40
2016,08,12,03,50,18.40
2016,08,12,03,51,18.40
2016,08,12,03,52,18.40
2016,08,12,03,53,18.40
2016,08,12,03,54,18.40
2016,08,12,03,55,18.40
2016,08,12,03,56,18.40
2016,08,12,03,57,18.40
2016,08,12,03,58,18.40
2016,08,12,03,59,18.40
2016,08,12,04,00,18.40
2016,08,12,04,01,18.40
2016,08,12,04,02,18.40
2016,08,12,04,03,18.40
2016,08,12,04,04,18.40
2016,08,12,04,05,18.40
2016,08,12,04,06,18.50
2016,08,12,04,07,18.50
2016,08,12,04,08,18.50
2016,08,12,04,09,18.50
2016,08,12,04,10,18.50
2016,08,12,04,11,18.50
2016,08,12,04,12,18.50
2016,08,12,04,13,18.50
2016,08,12,04,14,18.50
2016,08,12,04,15,18.50
2016,08,12,04,16,18.50
2016,08,12,04,17,18.50
2016,08,12,04,18,18.50
2016,08,12,04,19,18.50
2016,08,12,04,20,18.50
2016,08,12,04,21,18.40
2016,08,12,04,22,18.40
2016,08,12,04,23,18.40
2016,08,12,04,24,18.40
2016,08,12,04,25,18.40
2016,08,12,04,26,18.30
2016,08,12,04,27,18.30
2016,08,12,04,28,18.30
2016,08,12,04,29,18.30
2016,08,12,04,30,18.30
2016,08,12,04,31,18.30
2016,08,12,04,32,18.20
2016,08,12,04,33,18.20
2016,08,12,04,34,18.20
2016,08,12,04,35,18.20
2016,08,12,04,36,18.20
2016,08,12,04,37,18.20
2016,08,12,04,38,18.10
2016,08,12,04,39,18.10
2016,08,12,04,40,18.10
2016,08,12,04,41,18.10
2016,08,12,04,42,18.10
2016,08,12,04,43,18.10
2016,08,12,04,44,18.00
2016,08,12,04,45,18.00
2016,08,12,04,46,18.00
2016,08,12,04,47,18.00
2016,08,12,04,48,17.90
2016,08,12,04,49,17.90
2016,08,12,04,50,17.90
2016,08,12,04,51,17.90
2016,08,12,04,52,17.90
2016,08,12,04,53,17.90
2016,08,12,04,54,17.90
2016,08,12,04,55,17.80
2016,08,12,04,56,17.80
2016,08,12,04,57,17.80
2016,08,12,04,58,17.80
2016,08,12,04,59,17.80
2016,08,12,05,00,17.80
2016,08,12,05,01,17.80
2016,08,12,05,02,17.80
2016,08,12,05,03,17.80
2016,08,12,05,04,17.80
2016,08,12,05,05,17.70
2016,08,12,05,06,17.70
2016,08,12,05,07,17.70
2016,08,12,05,08,17.70
2016,08,12,05,09,17.70
2016,08,12,05,10,17.70
2016,08,12,05,11,17.70
2016,08,12,05,12,17.70
2016,08,12,05,13,17.70
2016,08,12,05,14,17.60
2016,08,12,05,15,17.60
2016,08,12,05,16,17.60
2016,08,12,05,17,17.60
2016,08,12,05,18,17.60
2016,08,12,05,19,17.60
2016,08,12,05,20,17.60
2016,08,12,05,21,17.60
2016,08,12,05,22,17.60
2016,08,12,05,23,17.60
2016,08,12,05,24,17.50
2016,08,12,05,25,17.50
2016,08,12,05,26,17.50
2016,08,12,05,27,17.60
2016,08,12,05,28,17.50
2016,08,12,05,29,17.50
2016,08,12,05,30,17.50
2016,08,12,05,31,17.50
2016,08,12,05,32,17.50
2016,08,12,05,33,17.50
2016,08,12,05,34,17.50
2016,08,12,05,35,17.50
2016,08,12,05,36,17.50
2016,08,12,05,37,17.50
2016,08,12,05,38,17.40
2016,08,12,05,39,17.40
2016,08,12,05,40,17.40
2016,08,12,05,41,17.40
2016,08,12,05,42,17.40
2016,08,12,05,43,17.40
2016,08,12,05,44,17.40
2016,08,12,05,45,17.40
2016,08,12,05,46,17.40
2016,08,12,05,47,17.40
2016,08,12,05,48,17.40
2016,08,12,05,49,17.40
2016,08,12,05,50,17.40
2016,08,12,05,51,17.40
2016,08,12,05,52,17.30
2016,08,12,05,53,17.30
2016,08,12,05,54,17.30
2016,08,12,05,55,17.30
2016,08,12,05,56,17.30
2016,08,12,05,57,17.30
2016,08,12,05,58,17.30
2016,08,12,05,59,17.30
2016,08,12,06,00,17.30
2016,08,12,06,01,17.30
2016,08,12,06,02,17.30
2016,08,12,06,03,17.30
2016,08,12,06,04,17.30
2016,08,12,06,05,17.30
2016,08,12,06,06,17.30
2016,08,12,06,07,17.30
2016,08,12,06,08,17.30
2016,08,12,06,09,17.40
2016,08,12,06,10,17.40
2016,08,12,06,11,17.40
2016,08,12,06,12,17.40
2016,08,12,06,13,17.40
2016,08,12,06,14,17.40
2016,08,12,06,15,17.50
2016,08,12,06,16,17.50
2016,08,12,06,17,17.50
2016,08,12,06,18,17.60
2016,08,12,06,19,17.60
2016,08,12,06,20,17.60
2016,08,12,06,21,17.70
2016,08,12,06,22,17.70
2016,08,12,06,23,17.80
2016,08,12,06,24,17.80
2016,08,12,06,25,17.80
2016,08,12,06,26,17.80
2016,08,12,06,27,17.90
2016,08,12,06,28,17.90
2016,08,12,06,29,17.90
2016,08,12,06,30,17.90
2016,08,12,06,31,18.00
2016,08,12,06,32,18.00
2016,08,12,06,33,18.00
2016,08,12,06,34,18.00
2016,08,12,06,35,18.00
2016,08,12,06,36,18.00
2016,08,12,06,37,18.10
2016,08,12,06,38,18.10
2016,08,12,06,39,18.10
2016,08,12,06,40,18.10
2016,08,12,06,41,18.10
2016,08,12,06,42,18.10
2016,08,12,06,43,18.10
2016,08,12,06,44,18.10
2016,08,12,06,45,18.10
2016,08,12,06,46,18.10
2016,08,12,06,47,18.10
2016,08,12,06,48,18.10
2016,08,12,06,49,18.10
2016,08,12,06,50,18.10
2016,08,12,06,51,18.10
2016,08,12,06,52,18.00
2016,08,12,06,53,18.00
2016,08,12,06,54,18.00
2016,08,12,06,55,18.00
2016,08,12,06,56,18.10
2016,08,12,06,57,18.10
2016,08,12,06,58,18.10
2016,08,12,06,59,18.10
2016,08,12,07,00,18.10
2016,08,12,07,01,18.10
2016,08,12,07,02,18.10
2016,08,12,07,03,18.10
2016,08,12,07,04,18.10
2016,08,12,07,05,18.10
2016,08,12,07,06,18.10
2016,08,12,07,07,18.10
2016,08,12,07,08,18.10
2016,08,12,07,09,18.20
2016,08,12,07,10,18.20
2016,08,12,07,11,18.20
2016,08,12,07,12,18.20
2016,08,12,07,13,18.20
2016,08,12,07,14,18.20
2016,08,12,07,15,18.20
2016,08,12,07,16,18.20
2016,08,12,07,17,18.30
2016,08,12,07,18,18.30
2016,08,12,07,19,18.30
2016,08,12,07,20,18.40
2016,08,12,07,21,18.40
2016,08,12,07,22,18.40
2016,08,12,07,23,18.50
2016,08,12,07,24,18.50
2016,08,12,07,25,18.60
2016,08,12,07,26,18.60
2016,08,12,07,27,18.60
2016,08,12,07,28,18.70
2016,08,12,07,29,18.70
2016,08,12,07,30,18.70
2016,08,12,07,31,18.70
2016,08,12,07,32,18.80
2016,08,12,07,33,18.80
2016,08,12,07,34,18.80
2016,08,12,07,35,18.80
2016,08,12,07,36,18.90
2016,08,12,07,37,18.90
2016,08,12,07,38,18.90
2016,08,12,07,39,18.90
2016,08,12,07,40,18.90
2016,08,12,07,41,19.00
2016,08,12,07,42,19.00
2016,08,12,07,43,19.00
2016,08,12,07,44,19.10
2016,08,12,07,45,19.10
2016,08,12,07,46,19.10
2016,08,12,07,47,19.10
2016,08,12,07,48,19.20
2016,08,12,07,49,19.20
2016,08,12,07,50,19.20
2016,08,12,07,51,19.20
2016,08,12,07,52,19.30
2016,08,12,07,53,19.30
2016,08,12,07,54,19.30
2016,08,12,07,55,19.30
2016,08,12,07,56,19.40
2016,08,12,07,57,19.40
2016,08,12,07,58,19.40
2016,08,12,07,59,19.50
2016,08,12,08,00,19.60
2016,08,12,08,01,19.60
2016,08,12,08,02,19.60
2016,08,12,08,03,19.70
2016,08,12,08,04,19.70
2016,08,12,08,05,19.70
2016,08,12,08,06,19.80
2016,08,12,08,07,19.80
2016,08,12,08,08,19.90
2016,08,12,08,09,19.90
2016,08,12,08,10,19.90
2016,08,12,08,11,20.00
2016,08,12,08,12,20.00
2016,08,12,08,13,20.00
2016,08,12,08,14,20.10
2016,08,12,08,15,20.10
2016,08,12,08,16,20.20
2016,08,12,08,17,20.20
2016,08,12,08,18,20.30
2016,08,12,08,19,20.30
2016,08,12,08,20,20.30
2016,08,12,08,21,20.30
2016,08,12,08,22,20.40
2016,08,12,08,23,20.40
2016,08,12,08,24,20.40
2016,08,12,08,25,20.50
2016,08,12,08,26,20.50
2016,08,12,08,27,20.60
2016,08,12,08,28,20.60
2016,08,12,08,29,20.60
2016,08,12,08,30,20.70
2016,08,12,08,31,20.70
2016,08,12,08,32,20.70
2016,08,12,08,33,20.70
2016,08,12,08,34,20.70
2016,08,12,08,35,20.80
2016,08,12,08,36,20.80
2016,08,12,08,37,20.80
2016,08,12,08,38,20.80
2016,08,12,08,39,20.90
2016,08,12,08,40,20.90
2016,08,12,08,41,21.00
2016,08,12,08,42,21.00
2016,08,12,08,43,21.10
2016,08,12,08,44,21.10
2016,08,12,08,45,21.20
2016,08,12,08,46,21.20
2016,08,12,08,47,21.30
2016,08,12,08,48,21.30
2016,08,12,08,49,21.40
2016,08,12,08,50,21.40
2016,08,12,08,51,21.50
2016,08,12,08,52,21.50
2016,08,12,08,53,21.60
2016,08,12,08,54,21.60
2016,08,12,08,55,21.60
2016,08,12,08,56,21.70
2016,08,12,08,57,21.70
2016,08,12,08,58,21.70
2016,08,12,08,59,21.80
2016,08,12,09,00,21.80
2016,08,12,09,01,21.90
2016,08,12,09,02,21.90
2016,08,12,09,03,22.00
2016,08,12,09,04,22.10
2016,08,12,09,05,22.10
2016,08,12,09,06,22.20
2016,08,12,09,07,22.20
2016,08,12,09,08,22.30
2016,08,12,09,09,22.30
2016,08,12,09,10,22.30
2016,08,12,09,11,22.30
2016,08,12,09,12,22.40
2016,08,12,09,13,22.40
2016,08,12,09,14,22.40
2016,08,12,09,15,22.50
2016,08,12,09,16,22.50
2016,08,12,09,17,22.50
2016,08,12,09,18,22.60
2016,08,12,09,19,22.70
2016,08,12,09,20,22.70
2016,08,12,09,21,22.70
2016,08,12,09,22,22.80
2016,08,12,09,23,22.80
2016,08,12,09,24,22.90
2016,08,12,09,25,22.90
2016,08,12,09,26,23.00
2016,08,12,09,27,23.10
2016,08,12,09,28,23.20
2016,08,12,09,29,23.20
2016,08,12,09,30,23.20
2016,08,12,09,31,23.30
2016,08,12,09,32,23.30
2016,08,12,09,33,23.30
2016,08,12,09,34,23.40
2016,08,12,09,35,23.40
2016,08,12,09,36,23.50
2016,08,12,09,37,23.50
2016,08,12,09,38,23.50
2016,08,12,09,39,23.60
2016,08,12,09,40,23.60
2016,08,12,09,41,23.70
2016,08,12,09,42,23.80
2016,08,12,09,43,23.80
2016,08,12,09,44,23.80
2016,08,12,09,45,23.90
2016,08,12,09,46,23.90
2016,08,12,09,47,23.90
2016,08,12,09,48,23.90
2016,08,12,09,49,24.00
2016,08,12,09,50,24.00
2016,08,12,09,51,24.10
2016,08,12,09,52,24.20
2016,08,12,09,53,24.20
2016,08,12,09,54,24.20
2016,08,12,09,55,24.30
2016,08,12,09,56,24.30
2016,08,12,09,57,24.40
2016,08,12,09,58,24.40
2016,08,12,09,59,24.40
2016,08,12,10,00,24.40
2016,08,12,10,01,24.40
2016,08,12,10,02,24.40
2016,08,12,10,03,24.30
2016,08,12,10,04,24.40
2016,08,12,10,05,24.40
2016,08,12,10,06,24.40
2016,08,12,10,07,24.40
2016,08,12,10,08,24.40
2016,08,12,10,09,24.50
2016,08,12,10,10,24.50
2016,08,12,10,11,24.60
2016,08,12,10,12,24.60
2016,08,12,10,13,24.70
2016,08,12,10,14,24.70
2016,08,12,10,15,24.70
2016,08,12,10,16,24.70
2016,08,12,10,17,24.70
2016,08,12,10,18,24.60
2016,08,12,10,19,24.50
2016,08,12,10,20,24.50
2016,08,12,10,21,24.40
2016,08,12,10,22,24.50
2016,08,12,10,23,24.60
2016,08,12,10,24,24.60
2016,08,12,10,25,24.60
2016,08,12,10,26,24.70
2016,08,12,10,27,24.80
2016,08,12,10,28,24.80
2016,08,12,10,29,24.90
2016,08,12,10,30,25.00
2016,08,12,10,31,25.00
2016,08,12,10,32,25.10
2016,08,12,10,33,25.20
2016,08,12,10,34,25.20
2016,08,12,10,35,25.30
2016,08,12,10,36,25.30
2016,08,12,10,37,25.30
2016,08,12,10,38,25.30
2016,08,12,10,39,25.30
2016,08,12,10,40,25.40
2016,08,12,10,41,25.40
2016,08,12,10,42,25.40
2016,08,12,10,43,25.40
2016,08,12,10,44,25.40
2016,08,12,10,45,25.40
2016,08,12,10,46,25.40
2016,08,12,10,47,25.40
2016,08,12,10,48,25.40
2016,08,12,10,49,25.30
2016,08,12,10,50,25.20
2016,08,12,10,51,25.20
2016,08,12,10,52,25.10
2016,08,12,10,53,25.10
2016,08,12,10,54,25.20
2016,08,12,10,55,25.20
2016,08,12,10,56,25.20
2016,08,12,10,57,25.30
2016,08,12,10,58,25.30
2016,08,12,10,59,25.40
2016,08,12,11,00,25.40
2016,08,12,11,01,25.40
2016,08,12,11,02,25.40
2016,08,12,11,03,25.50
2016,08,12,11,04,25.50
2016,08,12,11,05,25.60
2016,08,12,11,06,25.60
2016,08,12,11,07,25.60
2016,08,12,11,08,25.70
2016,08,12,11,09,25.70
2016,08,12,11,10,25.80
2016,08,12,11,11,25.80
2016,08,12,11,12,25.80
2016,08,12,11,13,25.80
2016,08,12,11,14,25.80
2016,08,12,11,15,25.70
2016,08,12,11,16,25.70
2016,08,12,11,17,25.70
2016,08,12,11,18,25.70
2016,08,12,11,19,25.80
2016,08,12,11,20,25.80
2016,08,12,11,21,25.90
2016,08,12,11,22,25.90
2016,08,12,11,23,26.00
2016,08,12,11,24,26.00
2016,08,12,11,25,26.00
2016,08,12,11,26,26.10
2016,08,12,11,27,26.10
2016,08,12,11,28,26.10
2016,08,12,11,29,26.20
2016,08,12,11,30,26.20
2016,08,12,11,31,26.20
2016,08,12,11,32,26.20
2016,08,12,11,33,26.20
2016,08,12,11,34,26.20
2016,08,12,11,35,26.20
2016,08,12,11,36,26.20
2016,08,12,11,37,26.20
2016,08,12,11,38,26.30
2016,08,12,11,39,26.30
2016,08,12,11,40,26.30
2016,08,12,11,41,26.30
2016,08,12,11,42,26.30
2016,08,12,11,43,26.40
2016,08,12,11,44,26.40
2016,08,12,11,45,26.40
2016,08,12,11,46,26.50
2016,08,12,11,47,26.50
2016,08,12,11,48,26.50
2016,08,12,11,49,26.60
2016,08,12,11,50,26.60
2016,08,12,11,51,26.60
2016,08,12,11,52,26.60
2016,08,12,11,53,26.70
2016,08,12,11,54,26.60
2016,08,12,11,55,26.50
2016,08,12,11,56,26.50
2016,08,12,11,57,26.50
2016,08,12,11,58,26.60
2016,08,12,11,59,26.50
2016,08,12,12,00,26.60
2016,08,12,12,01,26.60
2016,08,12,12,02,26.60
2016,08,12,12,03,26.70
2016,08,12,12,04,26.80
2016,08,12,12,05,26.90
2016,08,12,12,06,27.10
2016,08,12,12,07,27.10
2016,08,12,12,08,27.10
2016,08,12,12,09,27.20
2016,08,12,12,10,27.20
2016,08,12,12,11,27.10
2016,08,12,12,12,27.10
2016,08,12,12,13,27.10
2016,08,12,12,14,27.00
2016,08,12,12,15,27.00
2016,08,12,12,16,27.10
2016,08,12,12,17,27.00
2016,08,12,12,18,27.00
2016,08,12,12,19,27.00
2016,08,12,12,20,26.90
2016,08,12,12,21,26.90
2016,08,12,12,22,26.80
2016,08,12,12,23,26.80
2016,08,12,12,24,26.80
2016,08,12,12,25,26.70
2016,08,12,12,26,26.80
2016,08,12,12,27,26.90
2016,08,12,12,28,26.90
2016,08,12,12,29,26.90
2016,08,12,12,30,27.00
2016,08,12,12,31,27.00
2016,08,12,12,32,27.10
2016,08,12,12,33,27.20
2016,08,12,12,34,27.30
2016,08,12,12,35,27.50
2016,08,12,12,36,27.50
2016,08,12,12,37,27.50
2016,08,12,12,38,27.50
2016,08,12,12,39,27.40
2016,08,12,12,40,27.40
2016,08,12,12,41,27.50
2016,08,12,12,42,27.60
2016,08,12,12,43,27.60
2016,08,12,12,44,27.50
2016,08,12,12,45,27.50
2016,08,12,12,46,27.40
2016,08,12,12,47,27.40
2016,08,12,12,48,27.20
2016,08,12,12,49,27.20
2016,08,12,12,50,27.20
2016,08,12,12,51,27.20
2016,08,12,12,52,27.20
2016,08,12,12,53,27.20
2016,08,12,12,54,27.30
2016,08,12,12,55,27.30
2016,08,12,12,56,27.40
2016,08,12,12,57,27.40
2016,08,12,12,58,27.50
2016,08,12,12,59,27.60
2016,08,12,13,00,27.60
2016,08,12,13,01,27.70
2016,08,12,13,02,27.70
2016,08,12,13,03,27.60
2016,08,12,13,04,27.70
2016,08,12,13,05,27.80
2016,08,12,13,06,27.80
2016,08,12,13,07,27.90
2016,08,12,13,08,27.80
2016,08,12,13,09,27.90
2016,08,12,13,10,27.90
2016,08,12,13,11,28.00
2016,08,12,13,12,28.00
2016,08,12,13,13,28.00
2016,08,12,13,14,28.10
2016,08,12,13,15,28.00
2016,08,12,13,16,27.90
2016,08,12,13,17,27.80
2016,08,12,13,18,27.80
2016,08,12,13,19,27.80
2016,08,12,13,20,27.90
2016,08,12,13,21,27.90
2016,08,12,13,22,28.00
2016,08,12,13,23,28.00
2016,08,12,13,24,28.00
2016,08,12,13,25,28.10
2016,08,12,13,26,28.20
2016,08,12,13,27,28.20
2016,08,12,13,28,28.20
2016,08,12,13,29,28.30
2016,08,12,13,30,28.40
2016,08,12,13,31,28.50
2016,08,12,13,32,28.60
2016,08,12,13,33,28.70
2016,08,12,13,34,28.80
2016,08,12,13,35,28.70
2016,08,12,13,36,28.70
2016,08,12,13,37,28.60
2016,08,12,13,38,28.60
2016,08,12,13,39,28.70
2016,08,12,13,40,28.70
2016,08,12,13,41,28.60
2016,08,12,13,42,28.50
2016,08,12,13,43,28.40
2016,08,12,13,44,28.40
2016,08,12,13,45,28.30
2016,08,12,13,46,28.30
2016,08,12,13,47,28.40
2016,08,12,13,48,28.40
2016,08,12,13,49,28.40
2016,08,12,13,50,28.40
2016,08,12,13,51,28.50
2016,08,12,13,52,28.40
2016,08,12,13,53,28.40
2016,08,12,13,54,28.40
2016,08,12,13,55,28.40
2016,08,12,13,56,28.40
2016,08,12,13,57,28.30
2016,08,12,13,58,28.10
2016,08,12,13,59,28.00
2016,08,12,14,00,28.00
2016,08,12,14,01,28.00
2016,08,12,14,02,28.10
2016,08,12,14,03,28.20
2016,08,12,14,04,28.30
2016,08,12,14,05,28.40
2016,08,12,14,06,28.40
2016,08,12,14,07,28.40
2016,08,12,14,08,28.30
2016,08,12,14,09,28.30
2016,08,12,14,10,28.30
2016,08,12,14,11,28.40
2016,08,12,14,12,28.50
2016,08,12,14,13,28.50
2016,08,12,14,14,28.60
2016,08,12,14,15,28.70
2016,08,12,14,16,28.80
2016,08,12,14,17,28.80
2016,08,12,14,18,28.90
2016,08,12,14,19,29.00
2016,08,12,14,20,29.00
2016,08,12,14,21,29.10
2016,08,12,14,22,29.10
2016,08,12,14,23,29.10
2016,08,12,14,24,29.10
2016,08,12,14,25,29.20
2016,08,12,14,26,29.20
2016,08,12,14,27,29.30
2016,08,12,14,28,29.40
2016,08,12,14,29,29.50
2016,08,12,14,30,29.60
2016,08,12,14,31,29.60
2016,08,12,14,32,29.70
2016,08,12,14,33,29.80
2016,08,12,14,34,29.90
2016,08,12,14,35,30.00
2016,08,12,14,36,30.00
2016,08,12,14,37,30.00
2016,08,12,14,38,29.90
2016,08,12,14,39,29.80
2016,08,12,14,40,29.80
2016,08,12,14,41,29.80
2016,08,12,14,42,29.80
2016,08,12,14,43,29.80
2016,08,12,14,44,29.80
2016,08,12,14,45,29.90
2016,08,12,14,46,30.00
2016,08,12,14,47,30.10
2016,08,12,14,48,30.10
2016,08,12,14,49,30.10
2016,08,12,14,50,30.20
2016,08,12,14,51,30.20
2016,08,12,14,52,30.10
2016,08,12,14,53,30.10
2016,08,12,14,54,30.00
2016,08,12,14,55,30.00
2016,08,12,14,56,30.00
2016,08,12,14,57,30.10
2016,08,12,14,58,30.20
2016,08,12,14,59,30.30
2016,08,12,15,00,30.30
2016,08,12,15,01,30.30
2016,08,12,15,02,30.40
2016,08,12,15,03,30.40
2016,08,12,15,04,30.40
2016,08,12,15,05,30.40
2016,08,12,15,06,30.50
2016,08,12,15,07,30.50
2016,08,12,15,08,30.60
2016,08,12,15,09,30.60
2016,08,12,15,10,30.70
2016,08,12,15,11,30.70
2016,08,12,15,12,30.70
2016,08,12,15,13,30.50
2016,08,12,15,14,30.40
2016,08,12,15,15,30.30
2016,08,12,15,16,30.20
2016,08,12,15,17,30.10
2016,08,12,15,18,30.10
2016,08,12,15,19,30.10
2016,08,12,15,20,30.00
2016,08,12,15,21,30.00
2016,08,12,15,22,29.90
2016,08,12,15,23,29.90
2016,08,12,15,24,29.90
2016,08,12,15,25,29.90
2016,08,12,15,26,29.90
2016,08,12,15,27,29.90
2016,08,12,15,28,29.90
2016,08,12,15,29,29.90
2016,08,12,15,30,30.10
2016,08,12,15,31,30.20
2016,08,12,15,32,30.30
2016,08,12,15,33,30.30
2016,08,12,15,34,30.40
2016,08,12,15,35,30.40
2016,08,12,15,36,30.50
2016,08,12,15,37,30.60
2016,08,12,15,38,30.70
2016,08,12,15,39,30.70
2016,08,12,15,40,30.70
2016,08,12,15,41,30.80
2016,08,12,15,42,30.80
2016,08,12,15,43,30.80
2016,08,12,15,44,30.70
2016,08,12,15,45,30.70
2016,08,12,15,46,30.60
2016,08,12,15,47,30.60
2016,08,12,15,48,30.70
2016,08,12,15,49,30.80
2016,08,12,15,50,30.80
2016,08,12,15,51,30.80
2016,08,12,15,52,30.90
2016,08,12,15,53,30.80
2016,08,12,15,54,30.70
2016,08,12,15,55,30.60
2016,08,12,15,56,30.40
2016,08,12,15,57,30.40
2016,08,12,15,58,30.30
2016,08,12,15,59,30.20
2016,08,12,16,00,30.20
2016,08,12,16,01,30.10
2016,08,12,16,02,30.10
2016,08,12,16,03,30.10
2016,08,12,16,04,30.10
2016,08,12,16,05,30.10
2016,08,12,16,06,30.00
2016,08,12,16,07,30.00
2016,08,12,16,08,30.00
2016,08,12,16,09,30.00
2016,08,12,16,10,30.10
2016,08,12,16,11,30.20
2016,08,12,16,12,30.20
2016,08,12,16,13,30.20
2016,08,12,16,14,30.20
2016,08,12,16,15,30.20
2016,08,12,16,16,30.20
2016,08,12,16,17,30.20
2016,08,12,16,18,30.20
2016,08,12,16,19,30.10
2016,08,12,16,20,30.10
2016,08,12,16,21,30.20
2016,08,12,16,22,30.20
2016,08,12,16,23,30.10
2016,08,12,16,24,29.90
2016,08,12,16,25,29.90
2016,08,12,16,26,29.80
2016,08,12,16,27,29.70
2016,08,12,16,28,29.60
2016,08,12,16,29,29.60
2016,08,12,16,30,29.60
2016,08,12,16,31,29.60
2016,08,12,16,32,29.60
2016,08,12,16,33,29.60
2016,08,12,16,34,29.60
2016,08,12,16,35,29.70
2016,08,12,16,36,29.70
2016,08,12,16,37,29.70
2016,08,12,16,38,29.80
2016,08,12,16,39,29.80
2016,08,12,16,40,29.80
2016,08,12,16,41,29.90
2016,08,12,16,42,29.90
2016,08,12,16,43,29.90
2016,08,12,16,44,30.00
2016,08,12,16,45,30.00
2016,08,12,16,46,30.00
2016,08,12,16,47,30.00
2016,08,12,16,48,30.00
2016,08,12,16,49,30.00
2016,08,12,16,50,30.00
2016,08,12,16,51,29.90
2016,08,12,16,52,29.90
2016,08,12,16,53,30.00
2016,08,12,16,54,30.00
2016,08,12,16,55,30.00
2016,08,12,16,56,30.10
2016,08,12,16,57,30.10
2016,08,12,16,58,30.20
2016,08,12,16,59,30.20
2016,08,12,17,00,30.30
2016,08,12,17,01,30.30
2016,08,12,17,02,30.30
2016,08,12,17,03,30.30
2016,08,12,17,04,30.30
2016,08,12,17,05,30.20
2016,08,12,17,06,30.20
2016,08,12,17,07,30.20
2016,08,12,17,08,30.30
2016,08,12,17,09,30.30
2016,08,12,17,10,30.40
2016,08,12,17,11,30.50
2016,08,12,17,12,30.50
2016,08,12,17,13,30.50
2016,08,12,17,14,30.60
2016,08,12,17,15,30.60
2016,08,12,17,16,30.70
2016,08,12,17,17,30.70
2016,08,12,17,18,30.80
2016,08,12,17,19,30.80
2016,08,12,17,20,30.80
2016,08,12,17,21,30.80
2016,08,12,17,22,30.80